TimeCST,TemperatureF,Dew PointF,Humidity,Sea Level PressureIn,VisibilityMPH,Wind Direction,Wind SpeedMPH,Gust SpeedMPH,PrecipitationIn,Events,Conditions,WindDirDegrees,DateUTC
12:15 AM,57.2,48.2,72,29.90,10.0,NNW,8.1,-,N/A,,Overcast,330,2012-12-08 06:15:00
12:35 AM,57.2,48.2,72,29.90,10.0,NNW,8.1,-,N/A,,Overcast,340,2012-12-08 06:35:00
12:55 AM,57.2,48.2,72,29.90,10.0,NNW,6.9,-,N/A,,Overcast,330,2012-12-08 06:55:00
1:15 AM,55.4,48.2,77,29.89,10.0,North,6.9,-,N/A,,Mostly Cloudy,350,2012-12-08 07:15:00
1:35 AM,55.4,48.2,77,29.89,10.0,NNW,6.9,-,N/A,,Scattered Clouds,340,2012-12-08 07:35:00
1:55 AM,55.4,48.2,77,29.88,10.0,NNW,8.1,-,N/A,,Mostly Cloudy,340,2012-12-08 07:55:00
2:15 AM,53.6,48.2,82,29.88,10.0,NNW,6.9,-,N/A,,Mostly Cloudy,340,2012-12-08 08:15:00
2:35 AM,53.6,48.2,82,29.88,10.0,NNW,6.9,-,N/A,,Mostly Cloudy,340,2012-12-08 08:35:00
2:55 AM,51.8,46.4,82,29.88,10.0,NNW,3.5,-,N/A,,Partly Cloudy,340,2012-12-08 08:55:00
3:15 AM,51.8,46.4,82,29.88,10.0,Calm,Calm,-,N/A,,Clear,0,2012-12-08 09:15:00
3:35 AM,51.8,46.4,82,29.89,10.0,Calm,Calm,-,N/A,,Clear,0,2012-12-08 09:35:00
3:55 AM,51.8,46.4,82,29.89,10.0,NW,4.6,-,N/A,,Scattered Clouds,320,2012-12-08 09:55:00
4:15 AM,50.0,46.4,87,29.88,10.0,NNW,5.8,-,N/A,,Mostly Cloudy,330,2012-12-08 10:15:00
4:35 AM,50.0,46.4,87,29.89,10.0,NW,5.8,-,N/A,,Mostly Cloudy,320,2012-12-08 10:35:00
5:15 AM,51.8,48.2,88,29.89,8.0,NNW,8.1,-,N/A,,Overcast,340,2012-12-08 11:15:00
5:35 AM,51.8,48.2,88,29.89,8.0,NNW,10.4,-,N/A,,Mostly Cloudy,340,2012-12-08 11:35:00
6:15 AM,51.8,48.2,88,29.91,8.0,North,8.1,-,N/A,,Overcast,350,2012-12-08 12:15:00
6:35 AM,51.8,48.2,88,29.92,8.0,North,8.1,-,N/A,,Overcast,360,2012-12-08 12:35:00
6:55 AM,51.8,50.0,94,29.92,9.0,North,11.5,-,N/A,,Overcast,350,2012-12-08 12:55:00
7:15 AM,51.8,48.2,88,29.92,8.0,North,10.4,-,N/A,,Overcast,350,2012-12-08 13:15:00
7:35 AM,51.8,48.2,88,29.93,8.0,North,8.1,-,N/A,,Overcast,360,2012-12-08 13:35:00
7:55 AM,51.8,48.2,88,29.92,8.0,NNE,8.1,-,N/A,,Overcast,20,2012-12-08 13:55:00
8:15 AM,53.6,50.0,88,29.93,9.0,North,6.9,-,N/A,,Overcast,360,2012-12-08 14:15:00
8:35 AM,53.6,50.0,88,29.93,9.0,North,8.1,-,N/A,,Overcast,360,2012-12-08 14:35:00
8:55 AM,53.6,50.0,88,29.93,10.0,North,8.1,-,N/A,,Overcast,10,2012-12-08 14:55:00
9:15 AM,55.4,50.0,82,29.93,10.0,North,6.9,-,N/A,,Overcast,360,2012-12-08 15:15:00
9:35 AM,55.4,50.0,82,29.94,10.0,North,6.9,-,N/A,,Overcast,360,2012-12-08 15:35:00
9:55 AM,55.4,50.0,82,29.94,10.0,North,6.9,-,N/A,,Overcast,350,2012-12-08 15:55:00
10:15 AM,57.2,50.0,77,29.94,10.0,NNE,5.8,-,N/A,,Overcast,30,2012-12-08 16:15:00
10:35 AM,57.2,50.0,77,29.93,10.0,NNE,3.5,-,N/A,,Overcast,30,2012-12-08 16:35:00
10:55 AM,59.0,51.8,77,29.93,10.0,NNE,3.5,-,N/A,,Overcast,30,2012-12-08 16:55:00
11:15 AM,60.8,51.8,72,29.92,10.0,Calm,Calm,-,N/A,,Overcast,0,2012-12-08 17:15:00
11:35 AM,62.6,51.8,68,29.91,10.0,Calm,Calm,-,N/A,,Overcast,0,2012-12-08 17:35:00
11:55 AM,64.4,50.0,59,29.90,10.0,SE,3.5,-,N/A,,Overcast,140,2012-12-08 17:55:00
12:15 PM,64.4,50.0,59,29.89,10.0,SSE,4.6,-,N/A,,Overcast,160,2012-12-08 18:15:00
12:35 PM,64.4,48.2,56,29.88,10.0,SSW,5.8,-,N/A,,Overcast,200,2012-12-08 18:35:00
12:55 PM,64.4,48.2,56,29.87,10.0,SE,4.6,-,N/A,,Overcast,140,2012-12-08 18:55:00
1:15 PM,66.2,48.2,52,29.86,10.0,SE,4.6,-,N/A,,Overcast,140,2012-12-08 19:15:00
1:35 PM,66.2,48.2,52,29.85,10.0,SE,4.6,-,N/A,,Overcast,130,2012-12-08 19:35:00
1:55 PM,68.0,50.0,52,29.85,10.0,South,5.8,-,N/A,,Overcast,170,2012-12-08 19:55:00
2:35 PM,66.2,51.8,60,29.84,10.0,South,6.9,-,N/A,,Overcast,180,2012-12-08 20:35:00
2:55 PM,66.2,51.8,60,29.83,10.0,South,8.1,-,N/A,,Overcast,180,2012-12-08 20:55:00
3:15 PM,66.2,51.8,60,29.84,10.0,South,9.2,-,N/A,,Overcast,180,2012-12-08 21:15:00
3:35 PM,66.2,53.6,64,29.83,10.0,South,10.4,-,N/A,,Overcast,170,2012-12-08 21:35:00
3:55 PM,66.2,51.8,60,29.83,10.0,SSE,8.1,-,N/A,,Overcast,160,2012-12-08 21:55:00
4:15 PM,66.2,53.6,64,29.83,10.0,South,8.1,-,N/A,,Mostly Cloudy,170,2012-12-08 22:15:00
4:35 PM,66.2,53.6,64,29.83,10.0,South,5.8,-,N/A,,Overcast,170,2012-12-08 22:35:00
5:15 PM,64.4,53.6,68,29.83,10.0,SSE,4.6,-,N/A,,Overcast,160,2012-12-08 23:15:00
5:35 PM,62.6,53.6,72,29.83,10.0,SSE,4.6,-,N/A,,Overcast,160,2012-12-08 23:35:00
5:55 PM,62.6,53.6,72,29.83,10.0,SSE,5.8,-,N/A,,Overcast,160,2012-12-08 23:55:00
6:15 PM,62.6,53.6,72,29.84,10.0,SSE,6.9,-,N/A,,Overcast,160,2012-12-09 00:15:00
6:35 PM,62.6,53.6,72,29.83,10.0,SSE,4.6,-,N/A,,Mostly Cloudy,150,2012-12-09 00:35:00
6:55 PM,60.8,53.6,77,29.83,10.0,SSE,8.1,-,N/A,,Partly Cloudy,150,2012-12-09 00:55:00
7:15 PM,59.0,53.6,82,29.83,10.0,Calm,Calm,-,N/A,,Clear,0,2012-12-09 01:15:00
7:35 PM,59.0,53.6,82,29.83,10.0,SE,5.8,-,N/A,,Clear,140,2012-12-09 01:35:00
8:15 PM,60.8,55.4,82,29.83,10.0,ESE,4.6,-,N/A,,Overcast,120,2012-12-09 02:15:00
8:35 PM,60.8,55.4,82,29.83,10.0,SE,4.6,-,N/A,,Overcast,130,2012-12-09 02:35:00
8:55 PM,60.8,55.4,82,29.83,10.0,SE,4.6,-,N/A,,Overcast,140,2012-12-09 02:55:00
9:15 PM,60.8,55.4,82,29.83,10.0,SE,3.5,-,N/A,,Overcast,130,2012-12-09 03:15:00
9:35 PM,60.8,55.4,82,29.83,10.0,Calm,Calm,-,N/A,,Overcast,0,2012-12-09 03:35:00
9:55 PM,60.8,55.4,82,29.83,10.0,Calm,Calm,-,N/A,,Mostly Cloudy,0,2012-12-09 03:55:00
10:15 PM,60.8,57.2,88,29.84,10.0,ESE,3.5,-,N/A,,Mostly Cloudy,110,2012-12-09 04:15:00
10:35 PM,60.8,57.2,88,29.83,10.0,SE,5.8,-,N/A,,Mostly Cloudy,140,2012-12-09 04:35:00
10:55 PM,60.8,55.4,82,29.83,10.0,SE,8.1,-,N/A,,Partly Cloudy,140,2012-12-09 04:55:00
11:15 PM,59.0,57.2,94,29.83,10.0,ESE,6.9,-,N/A,,Scattered Clouds,120,2012-12-09 05:15:00
11:35 PM,60.8,57.2,88,29.82,10.0,SE,6.9,-,N/A,,Mostly Cloudy,130,2012-12-09 05:35:00
11:55 PM,60.8,57.2,88,29.81,10.0,SE,5.8,-,N/A,,Partly Cloudy,140,2012-12-09 05:55:00